Regional Weather Roundup
Issued by NWS

Home | Current Version | Previous Version | Graphics & Text | Print | Product List | Glossary Off
Versions: 1 2 3 4 5 6 7 8 9 10 11 12 13 14 15 16 17 18 19 20 21 22 23 24 25 26 27 28 29 30 31 32 33 34 35 36 37 38 39 40 41 42 43 44 45 46 47 48 49 50

000
ASUS43 KMKX 210500
RWRWI

WISCONSIN REGIONAL WEATHER ROUNDUP
NATIONAL WEATHER SERVICE MILWAUKEE/SULLIVAN WI
1100 PM CST SAT DEC 20 2014

NOTE: "FAIR" INDICATES FEW OR NO CLOUDS BELOW 12,000 FEET WITH NO
SIGNIFICANT WEATHER AND/OR OBSTRUCTIONS TO VISIBILITY.

WIZ001-002-006>008-014>016-023>028-210600-
NORTHWEST WISCONSIN

CITY           SKY/WX    TMP DP  RH WIND       PRES   REMARKS
SUPERIOR ARPT  CLOUDY    32  28  83 SW9       30.08F WCI  24
ASHLAND        CLOUDY    31  26  82 S8        30.11S WCI  23
HAYWARD        CLOUDY    30  26  85 S13       30.10R FOG     WCI  20
SIREN          CLOUDY    31  28  85 S13G18    30.09F WCI  22
CUMBERLAND     CLOUDY    30  28  93 S9        30.10R FOG     WCI  22
RICE LAKE      CLOUDY    31  28  89 S8        30.13R FOG     WCI  23
CHETEK         CLOUDY    30  28  91 SE8       30.12S FOG     WCI  23
LADYSMITH      CLOUDY    31  28  90 S7        30.13S FOG     WCI  24
EAU CLAIRE     CLOUDY    30  28  92 S7        30.13S FOG     WCI  23
MENOMONIE      CLOUDY    31  30  94 SE6       30.13S FOG     WCI  26
NEW RICHMOND   CLOUDY    31  29  92 S13       30.10F WCI  21
OSCEOLA        CLOUDY    32  29  88 S13       30.12F WCI  22
$$

WIZ003>005-009-010-017-018-210600-
NORTH CENTRAL WISCONSIN

CITY           SKY/WX    TMP DP  RH WIND       PRES   REMARKS
MANITOWISH WTR CLOUDY    27  27  99 S8        30.10S WCI  19
ARBOR VITAE    CLOUDY    29  27  92 S8        30.10F FOG     WCI  21
WOODRUFF       CLOUDY    29  27  92 S8        30.10F FOG     WCI  21
RHINELANDER    CLOUDY    26  24  92 S5        30.12F WCI  20
EAGLE RIVER    CLOUDY    27  26  96 S5        30.11F WCI  22
LAND O LAKES   CLOUDY    28  26  94 S5        30.11F WCI  23
PHILLIPS       CLOUDY    28  26  93 S7        30.10F FOG     WCI  20
TOMAHAWK       CLOUDY    28  25  90 CALM      30.13S FOG
MEDFORD        CLOUDY    28  26  95 S8        30.12S FOG     WCI  19
MERRILL        CLOUDY    28  26  91 S5        30.14S WCI  23
$$

WIZ029-030-035-036-043>047-210600-
CENTRAL WISCONSIN

CITY           SKY/WX    TMP DP  RH WIND       PRES   REMARKS
WAUSAU         CLOUDY    28  25  88 S6        30.14S WCI  22
MOSINEE        CLOUDY    28  28 100 SE5       30.16S WCI  23
MARSHFIELD     CLOUDY    29  26  89 S7        30.14S FOG     WCI  22
STEVENS POINT  CLOUDY    27  25  91 S5        30.17S FOG     WCI  22
WAUPACA        CLOUDY    30  27  88 SE3       30.20S FOG
WAUTOMA        NOT AVBL
WISC RAPIDS    CLOUDY    29  25  85 SE5       30.17F WCI  24
CAMP DOUGLAS   MOCLDY    30  30 100 SE6       30.16F WCI  24
$$

WIZ011>013-019>022-031-037>040-048>050-210600-
NORTHEAST WISCONSIN

CITY           SKY/WX    TMP DP  RH WIND       PRES   REMARKS
ANTIGO         CLOUDY    25  24  97 S6        30.15S FOG     WCI  18
SHAWANO        CLOUDY    30  26  84 CALM      30.20F FOG
OCONTO         CLOUDY    28  27  97 CALM      30.21S
STURGEON BAY   CLOUDY    28  25  86 CALM      30.22S
GREEN BAY      CLOUDY    29  27  92 CALM      30.21F FOG
MANITOWOC      NOT AVBL
APPLETON       CLOUDY    27  27 100 VRB3      30.20F FOG
CLINTONVILLE   CLOUDY    28  27  93 S3        30.20F FOG
OSHKOSH        CLOUDY    29  26  89 S5        30.20F FOG     WCI  24
$$

WIZ032>034-041-042-053>061-210600-
SOUTHWEST WISCONSIN

CITY           SKY/WX    TMP DP  RH WIND       PRES   REMARKS
LA CROSSE      CLOUDY    33  28  81 S8        30.16S WCI  26
SPARTA         CLOUDY    31  27  87 S7        30.17S FOG     WCI  24
VIROQUA        CLOUDY    29  29 100 S6        30.14S WCI  23
BOSCOBEL       CLOUDY    32  27  81 CALM      30.18F HAZE
PRAIRIE DU CHI CLOUDY    32  28  87 SE3       30.18S FOG
PLATTEVILLE    CLOUDY    31  29  94 CALM      30.18F
$$

WIZ056-057-062-063-064-067-068-210600-
SOUTH CENTRAL WISCONSIN

CITY           SKY/WX    TMP DP  RH WIND       PRES   REMARKS
REEDSBURG      CLOUDY    29  26  88 SE5       30.17F WCI  24
BARABOO/DELLS  CLOUDY    29  26  87 S8        30.17F FOG     WCI  21
LONE ROCK      CLOUDY    34  26  72 E6        30.19S WCI  29
MINERAL POINT  CLOUDY    32  28  86 SE6       30.17S FOG     WCI  26
MADISON        CLOUDY    30  26  85 S8        30.20S WCI  22
MIDDLETON      CLOUDY    32  27  83 S6        30.20S WCI  26
WATERTOWN      CLOUDY    30  28  94 SE3       30.20F
MONROE         CLOUDY    30  28  93 S9        30.19S WCI  22
JANESVILLE     CLOUDY    32  28  86 S5        30.21S WCI  27
$$

WIZ051-052-058>065-066-070>072-210600-
SOUTHEAST WISCONSIN

CITY           SKY/WX    TMP DP  RH WIND       PRES   REMARKS
MILWAUKEE      CLOUDY    32  24  72 S7        30.23F WCI  26
WAUKESHA       CLOUDY    30  27  86 S6        30.22F WCI  24
MILWAUKEE/TIMM CLOUDY    32  25  74 S5        30.23F WCI  27
RACINE         CLOUDY    32  25  75 S6        30.25F WCI  26
BURLINGTON     CLOUDY    29  26  86 S3        30.22F
KENOSHA        CLOUDY    31  26  82 S5        30.23F WCI  26
FOND DU LAC    CLOUDY    30  26  85 S6        30.20F WCI  24
SHEBOYGAN      CLOUDY    30  25  81 S3        30.22S
WEST BEND      CLOUDY    30  27  86 S3        30.21F
JUNEAU         CLOUDY    29  27  90 S7        30.22S FOG     WCI  22
$$

LSZ147-162-210600-
LAKE SUPERIOR

STATION/POSITION TIME  TEMP    WIND        PRES    WAVE
                       AIR SEA DIR/SP/G            HT/PER
                 (UTC) (F)     (DEG/KT/KT) (MB)    (FT/S)
DEVILS ISLAND    0400   32     200/ 10/ 14 1020.5F
PORT WING        0440   32     190/  7/ 11 1019.3S
SAXON HARBOR     0400   32     170/  1/  5 1019.6F
$$

LMZ867-665-643>646-210600-
LAKE MICHIGAN

STATION/POSITION TIME  TEMP    WIND        PRES    WAVE
                       AIR SEA DIR/SP/G            HT/PER
                 (UTC) (F)     (DEG/KT/KT) (MB)    (FT/S)
CHAMBERS ISLAND  0400   28        CALM     1023.4F
NORTHPORT PIER   0400   31      CALM  /  3 1023.4S
SISTER BAY       0313             CALM       N/A
ALGOMA LAKESHORE 0414          340/  6/  6   N/A
KEWAUNEE LAKESHO 0400   28     300/  2/  5 1022.4F
SHEBOYGAN LAKESH 0400   31 34  220/  5/  5 1024.5F
PORT WASHINGTON  0400   31     230/  3/  4 1024.4
MILWAUKEE LAKESH 0400   32     230/  9/ 11   N/A
KENOSHA   LAKESH 0400   32     190/  4/  6 1024.0F
$$

TC  - TEMPERATURE IN CELSIUS
VSB - VISIBILITY IN STATUTE MILES
WCI - WIND CHILL INDEX
HX  - HEAT INDEX



USA.gov is the U.S. government's official web portal to all federal, state and local government web resources and services.